Tracking 29892 objects as of 21-Nov-2024
HD Live streaming from Space Station
objects crossing your sky now

TITAN 3C TRANSTAGE DEB

Track TITAN 3C TRANSTAGE DEB now!


NORAD ID: 20672
Int'l Code: 1965-108AD
Perigee: 624.6 km
Apogee: 30,209.3 km
Inclination: 26.8 °
Period: 533.4 minutes
Semi major axis: 21787 km
RCS: 0.0893 m2 (small)
Launch date: December 21, 1965
Source: United States (US)
Launch site: AIR FORCE EASTERN TEST RANGE (AFETR)

Note: This is SATELLITE DEBRIS
Your satellite tracking list
Your tracking list is empty




NASA's NSSDC Master Catalog

Two Line Element Set (TLE):
1 20672U 65108AD  24303.58421749  .00000136  00000-0  17540-2 0  9998
2 20672  26.8418 100.6864 6789219 254.7054  27.2902  2.69946806309141
Source of the keplerian elements: AFSPC